USA 40 R/B DEB, 23379

Orbit data source: Space-Track

USA 40 R/B DEB, 23379 is space debris originally from a launch on Tue, 08 Aug 1989 UTC launched from the Air Force Eastern Test Range (AFETR). Debris objects in space refer to the collection of defunct objects orbiting the Earth. Examples of debris include non-operational satellites, rocket bodies, and fragments generated from explosions, collisions, or faulty payload assembly.

Loading next visibility...
Identifier
23379, 1989-061BB
Orbit
Active
Country
Flag of USUS
Related business
Manufacturer
Unknown
Mission
Spacecraft
Bus & Motor
Unknown
Mass
Unknown
Launch date (UTC)
1989-08-08 (37 years ago)
Launch vehicle
Unknown
Launch site
Air Force Eastern Test Range (AFETR)
Object type
Payload
Rocket body
Debris
Shape & HBR
Unknown shape, 0.1 m
Radar Cross Section
Small (<0.1 m²)

Expand to show TLE details & history
Last TLE update: 4 days ago

TLE from 4 days ago
0 USA 40 R/B DEB
1 23379U 89061BB  26091.20923645  .00002952  00000-0  23976-2 0  9994
2 23379  57.0015  33.5682 2971971 194.9772 153.9781  8.92123599225568
Epoch: 2026-04-01T05:01Z
TLE epoch observation values (Epoch: 2026-04-01T05:01:18.029Z)
Latitude
0.00002°
Longitude
128.66774°
Altitude
6,182.664 km
Speed
4.785 km/s
True Right ascension
02h 14m 16s
True Declination
0° 00' 00"
Sunlit
Object was in daylight at epoch
Visualization orbit readout
Latitude
Unknown
Longitude
Unknown
Altitude
Unknown
Speed
Unknown
Apparent Right ascension
Unknown
Apparent Declination
Unknown
Sunlit
N/A
Visualization observer readout
Local Sidereal Time
02:39:01
Azimuth
Unknown
Elevation
Unknown
Doppler factor
Unknown
Orbital elements
Apogee altitude
6,360.184 km
Perigee altitude
523.304 km
Semi-major axis
9,819.881 km
Eccentricity
0.2972
Inclination
57.0015°
RAAN
33.5682°
Arg. of periapsis
194.9772°
True anomaly
165.09463°
Mean anomaly
153.9781°
Eccentric anomaly
159.84526°
Mean motion
2.23041 °/min
Orbital period
161.41 mins
BSTAR
0.0023976
Loading maneuver chart data...
Computing Atmospheric mass density...
Loading historical data...
Loading historical data...
Loading historical data...
Loading historical data...
Loading historical data...
Loading historical data...
Loading historical data...

Documentation

Showing up to 5 results
|